Location: Unspecified
(48.8656°N, 0.0000°E)
Time: 07:13:19
(UTC+00:00)

Vanguard 1 Rocket - Pass Details

Date: 19 June 2019
Orbit: 651 x 4225 km, 34.3° (Epoch: 19 July)

Event Time Altitude Azimuth Distance (km) Brightness Sun altitude
Rises 21:10:52 0° 258° (WSW) 5,306 11.7 -8.3°
Reaches altitude 10° 21:15:49 10° 246° (WSW) 3,670 10.7 -8.8°
Maximum altitude 21:22:02 22° 199° (SSW) 2,130 9.0 -9.4°
Enters shadow 21:25:52 12° 153° (SSE) 2,339 8.8 -9.8°
Drops below altitude 10° 21:26:21 10° 149° (SSE) 2,443 - -9.9°
Sets 21:28:53 0° 132° (SE) 3,163 - -10.1°
